Location: Unspecified
(22.6800°N, 112.2000°E)
Time: 07:22:51
(UTC+08:00)

ISS - Visible Passes

Search period start: 11 December 2023 00:00
Search period end: 21 December 2023 00:00
Orbit: 415 x 417 km, 51.6° (Epoch: 10 December)

Date Brightness Start Highest point End Pass type
(mag) Time Alt. Az. Time Alt. Az. Time Alt. Az.
13 Dec 0.0 06:08:27 10° SE 06:09:28 11° SE 06:10:29 10° ESE visible
15 Dec -2.6 06:05:17 10° SSW 06:08:28 45° SE 06:11:40 10° NE visible
16 Dec -1.1 05:17:16 10° S 05:19:49 20° SE 05:22:22 10° ENE visible
17 Dec -3.2 06:05:41 19° WSW 06:07:34 36° NW 06:10:40 10° NNE visible
18 Dec -1.6 05:20:56 20° NE 05:20:56 20° NE 05:22:05 10° NE visible
